DELTA 1 DEB, 10649

Orbit data source: Space-Track

DELTA 1 DEB, 10649 is space debris in LEO originally from a launch on Thu, 29 Jul 1976 UTC launched from the Air Force Western Test Range (AFWTR). Debris objects in space refer to the collection of defunct objects orbiting the Earth. Examples of debris include non-operational satellites, rocket bodies, and fragments generated from explosions, collisions, or faulty payload assembly.

Loading next visibility...
Identifier
10649, 1976-077K
Orbit
LEO
Country
Flag of USUS
Related business
Manufacturer
Unknown
Mission
Spacecraft
Bus & Motor
Unknown
Mass
Unknown
Launch date (UTC)
1976-07-29 (50 years ago)
Launch vehicle
Unknown
Launch site
Air Force Western Test Range (AFWTR)
Object type
Payload
Rocket body
Debris
Shape & HBR
Unknown shape, 0.3 m
Radar Cross Section
Small (<0.1 m²)

Expand to show TLE details & history
Last TLE update: 12 hours ago

TLE from 12 hours ago
0 DELTA 1 DEB
1 10649U 76077K   26127.76650694  .00000109  00000-0  19149-2 0  9994
2 10649 102.2948  57.5306 0375916 160.1496 229.8398 11.80259136131543
Epoch: 2026-05-07T18:23Z
TLE epoch observation values (Epoch: 2026-05-07T18:23:46.199Z)
Latitude
26.16528°
Longitude
-90.13814°
Altitude
1,977.332 km
Speed
6.823 km/s
True Right ascension
03h 25m 38s
True Declination
26° 02' 57"
Sunlit
Object was in daylight at epoch
Visualization orbit readout
Latitude
Unknown
Longitude
Unknown
Altitude
Unknown
Speed
Unknown
Apparent Right ascension
Unknown
Apparent Declination
Unknown
Sunlit
N/A
Visualization observer readout
Local Sidereal Time
14:25:57
Azimuth
Unknown
Elevation
Unknown
Doppler factor
Unknown
Orbital elements
Apogee altitude
2,074.372 km
Perigee altitude
1,461.908 km
Semi-major axis
8,146.277 km
Eccentricity
0.03759
Inclination
102.2948°
RAAN
57.5306°
Arg. of periapsis
160.1496°
True anomaly
226.64627°
Mean anomaly
229.8398°
Eccentric anomaly
228.23333°
Mean motion
2.95192 °/min
Orbital period
121.95 mins
BSTAR
0.0019149
Loading maneuver chart data...
Computing Atmospheric mass density...
Loading historical data...
Loading historical data...
Loading historical data...
Loading historical data...
Loading historical data...
Loading historical data...
Loading historical data...

Documentation

Showing up to 5 results
|